Content
SEND FEEDBACK

Daily
Averages
Monthly
Summary
Thailand

SONGKHLA, THAILAND


Home > Asia > Thailand
Elevation: 16 feet     Latitude: 07 12N     Longitude: 100 36E

WEATHER
 
SELECT A DAY
Number of Records: 237,042;   Date Range: 7/1/96 - 8/12/14
 
SHARE

PRINT THIS DATA

[ ← Previous Day ]
WEATHER ALMANAC - FEBRUARY 13, 2013
[ Next Day → ]
[ °C ]   °F
Weather ElementAverageHighLow
Temperature81.2 °F89.6 °F (1:30 pm)75 °F (7:00 am)
Dewpoint72.2 °F75.2 °F (9:30 am)68 °F (4:30 pm)
Humidity75.5 %94 % (1:00 am)46 % (1:00 pm)
Barometer29.82 in29.89 in (10:30 pm)29.77 in (3:00 pm)
Wind Speed6.3 mph13.8 mph (12:00 pm)
Weather ElementAverage
Visibility6.1 mi
Wind DirectionE (86.5 °)

Weather ElementTotal
Precipitation---
Cooling Degree Days17.3 (Base 65)
Growing Degree Days32.3 (Base 50)
Averaged from 50 records on February 13, 2013
WEATHER CONDITIONS BREAKOUT
WIND DIRECTION BREAKOUT
WEATHER BY HOUR - FEBRUARY 13, 2013
[ °C ]   °F
Local TimeTemperatureDewpointHumidityBarometerVisibilityWind DirectionWind SpeedGust SpeedPrecipitationEventsConditions
12:30 AM77.0 °F73.4 °F89 %29.86 in6.2 miCalmMostly Cloudy
1:00 AM76.0 °F74.0 °F90 %29.85 in6.0 miCalmPartly Cloudy
1:00 AM75.2 °F73.4 °F94 %29.83 in6.2 miCalmMostly Cloudy
1:30 AM75.2 °F73.4 °F94 %29.83 in6.2 miCalmMostly Cloudy
2:00 AM75.2 °F73.4 °F94 %29.83 in6.2 miCalmMostly Cloudy
2:30 AM75.2 °F73.4 °F94 %29.83 in6.2 miCalmMostly Cloudy
3:30 AM75.2 °F73.4 °F94 %29.80 in6.2 miCalmMostly Cloudy
4:00 AM75.2 °F73.4 °F94 %29.80 in5.6 miNNW (330°)3.5 mphMostly Cloudy
4:30 AM75.2 °F73.4 °F94 %29.80 in5.6 miWNW (300°)3.5 mphMostly Cloudy
5:00 AM75.2 °F73.4 °F94 %29.80 in5.0 miNNW (330°)2.3 mphMostly Cloudy
5:30 AM75.2 °F73.4 °F94 %29.80 in5.0 miWNW (300°)2.3 mphMostly Cloudy
6:00 AM75.2 °F73.4 °F94 %29.80 in5.0 miNorth (350°)4.6 mphMostly Cloudy
6:30 AM75.2 °F73.4 °F94 %29.80 in5.0 miNNW (330°)3.5 mphMostly Cloudy
7:00 AM75.0 °F73.0 °F91 %29.81 in6.0 miCalmMist
7:00 AM75.2 °F73.4 °F94 %29.83 in5.6 miCalmMostly Cloudy
7:30 AM77.0 °F73.4 °F89 %29.83 in6.2 miNorth (350°)3.5 mphMostly Cloudy
8:00 AM78.8 °F73.4 °F83 %29.83 in6.2 miENE (60°)3.5 mphMostly Cloudy
8:30 AM78.8 °F73.4 °F83 %29.86 in6.2 miENE (70°)8.1 mphMostly Cloudy
9:00 AM78.8 °F73.4 °F83 %29.86 in6.2 miEast (90°)2.3 mphMostly Cloudy
9:30 AM82.4 °F75.2 °F79 %29.86 in6.2 miEast (80°)6.9 mphMostly Cloudy
10:00 AM84.2 °F73.4 °F70 %29.86 in6.2 miENE (70°)8.1 mphMostly Cloudy
10:30 AM86.0 °F71.6 °F62 %29.86 in6.2 miENE (60°)11.5 mphMostly Cloudy
11:00 AM86.0 °F71.6 °F62 %29.86 in6.2 miEast (80°)11.5 mphMostly Cloudy
11:30 AM87.8 °F71.6 °F58 %29.86 in6.2 miEast (80°)8.1 mphMostly Cloudy
12:00 PM87.8 °F71.6 °F58 %29.86 in6.2 miENE (60°)13.8 mphMostly Cloudy
12:30 PM87.8 °F71.6 °F58 %29.83 in6.2 miEast (80°)10.4 mphMostly Cloudy
1:00 PM88.0 °F70.0 °F46 %29.83 in6.0 miENE (60°)10.4 mphPartly Cloudy
1:00 PM87.8 °F69.8 °F55 %29.83 in6.2 miENE (60°)10.4 mphMostly Cloudy
1:30 PM89.6 °F69.8 °F52 %29.83 in6.2 miNE (50°)10.4 mphMostly Cloudy
2:00 PM89.6 °F71.6 °F55 %29.80 in6.2 miNE (40°)13.8 mphMostly Cloudy
2:30 PM89.6 °F69.8 °F52 %29.80 in6.2 miNE (40°)12.7 mphMostly Cloudy
3:00 PM87.8 °F69.8 °F55 %29.77 in6.2 miNE (50°)9.2 mphMostly Cloudy
3:30 PM89.6 °F69.8 °F52 %29.77 in6.2 miENE (60°)12.7 mphMostly Cloudy
4:00 PM87.8 °F69.8 °F55 %29.77 in6.2 miENE (70°)6.9 mphMostly Cloudy
4:30 PM87.8 °F68.0 °F52 %29.77 in6.2 miNE (40°)10.4 mphScattered Clouds
5:00 PM87.8 °F68.0 °F52 %29.77 in6.2 miNE (40°)11.5 mphScattered Clouds
5:30 PM86.0 °F69.8 °F58 %29.77 in6.2 miNE (40°)12.7 mphScattered Clouds
6:00 PM84.2 °F69.8 °F62 %29.77 in6.2 miNE (40°)12.7 mphScattered Clouds
6:30 PM82.4 °F71.6 °F70 %29.80 in6.2 miENE (60°)9.2 mphMostly Cloudy
7:00 PM81.0 °F71.0 °F66 %29.81 in6.0 miNE (40°)11.5 mphScattered Clouds
7:00 PM80.6 °F71.6 °F74 %29.80 in6.2 miNE (40°)11.5 mphMostly Cloudy
7:30 PM80.6 °F71.6 °F74 %29.80 in6.2 miENE (60°)8.1 mphScattered Clouds
8:00 PM80.6 °F71.6 °F74 %29.83 in6.2 miNE (50°)6.9 mphScattered Clouds
8:30 PM80.6 °F73.4 °F79 %29.83 in6.2 miENE (60°)5.8 mphScattered Clouds
9:00 PM78.8 °F73.4 °F83 %29.86 in6.2 miNE (50°)4.6 mphScattered Clouds
9:30 PM80.6 °F73.4 °F79 %29.86 in6.2 miNE (50°)6.9 mphScattered Clouds
10:00 PM80.6 °F73.4 °F79 %29.86 in6.2 miNE (40°)3.5 mphRainLight Rain
10:30 PM77.0 °F73.4 °F89 %29.89 in6.2 miEast (90°)4.6 mphRainLight Rain
11:00 PM77.0 °F73.4 °F89 %29.86 in6.2 miCalmRainLight Rain
11:30 PM77.0 °F73.4 °F89 %29.86 in6.2 miCalmMostly Cloudy
Hourly data recorded from VTSS, located miles away from Songkhla, Thailand







STORIES FROM OUR PARTNERS